Tracking 31027 objects as of 19-Jul-2025
HD Live streaming from Space Station
objects crossing your sky now

STARLINK-30470

Track STARLINK-30470 now!
10-day predictions
STARLINK-30470 is classified as:


NORAD ID: 57892
Int'l Code: 2023-146B
Perigee: 565.8 km
Apogee: 566.7 km
Inclination: 43.0 °
Period: 95.8 minutes
Semi major axis: 6937 km
RCS: Unknown
Launch date: September 20, 2023
Source: United States (US)
Launch site: AIR FORCE EASTERN TEST RANGE (AFETR)
Your satellite tracking list
SL-8 R/B
Track 1 satellite(s)




NASA's NSSDC Master Catalog

Two Line Element Set (TLE):
1 57892U 23146B   25199.55409514 -.00000596  00000-0 -29082-4 0  9993
2 57892  43.0013 145.7907 0000589 284.2766  75.8011 15.02527073101842
Source of the keplerian elements: AFSPC